Location: *
(48.4333°N, 5.0333°W)
Time: 16:07:49
(UTC+00:00)

ISS - Visible Passes

Search period start: 23 July 2021 00:00
Search period end: 02 August 2021 00:00
Orbit: 419 x 421 km, 51.6° (Epoch: 22 July)

Date Brightness Start Highest point End Pass type
(mag) Time Alt. Az. Time Alt. Az. Time Alt. Az.
23 Jul -2.7 21:03:35 10° WNW 21:06:53 46° N 21:10:10 10° ENE visible
23 Jul -3.8 22:40:31 10° WNW 22:43:56 88° NNE 22:44:40 52° ESE visible
24 Jul -3.5 21:53:12 10° WNW 21:56:36 68° NNE 21:58:48 20° E visible
24 Jul -1.8 23:30:14 10° W 23:31:45 21° W 23:31:45 21° W visible
25 Jul -3.2 21:05:53 10° WNW 21:09:14 56° NNE 21:12:33 10° E visible
25 Jul -3.3 22:42:47 10° WNW 22:45:55 45° SW 22:45:55 45° SW visible
26 Jul -3.7 21:55:24 10° WNW 21:58:46 67° SSW 22:00:07 33° SE visible
27 Jul -3.8 21:08:03 10° WNW 21:11:28 89° NNE 21:14:20 14° ESE visible
27 Jul -1.8 22:45:21 10° W 22:47:17 20° WSW 22:47:17 20° WSW visible
28 Jul -2.6 21:57:44 10° W 22:00:46 30° SW 22:01:33 27° S visible
29 Jul -3.2 21:10:16 10° WNW 21:13:31 45° SSW 21:15:52 17° SE visible
30 Jul -1.5 22:00:45 10° WSW 22:02:31 14° SW 22:03:10 13° SSW visible
31 Jul -1.8 21:12:47 10° W 21:15:22 20° SW 21:17:34 12° S visible
